www.pogodaiklimat.ru

Погода и климат >> Архив погоды >> Бразилия >> Токантинс >> Императрис


ПОГОДА в Императрисе

  • Прогноз погоды в Императрисе
  • Монитор погоды в Императрисе

АРХИВ ПОГОДЫ в Императрисе

Время (UTC), дата Ветер
(напр.,м/с)
 
Видим.   Явления Облачность Т
(С)
Тd
(С)
f
(%)
Тe
(С)
Тes
(С)
Комфортность P
(гПа)
Po
(гПа)
Тmin
(С)
Tmax
(С)
R
(мм)
R24
(мм)
S
(см)
01 12.02 штиль 0
{2}
н/о н/о +27.8 +22.2 72 +36 +36 очень
душно
1010.6 997.2
02 12.02 штиль 0
{1}
н/о н/о +26.9 +21.8 74 +35 +35 очень
душно
1011.0 997.5
03 12.02 штиль 0
{1}
н/о н/о +27.0 +22.2 75 +35 +35 очень
душно
1010.8 997.3
04 12.02 штиль 0
{1}
н/о н/о +26.7 +22.0 75 +34 +34 очень
душно
1010.3 996.8
05 12.02 штиль 0 н/о н/о +25.5 +21.4 78 +32 +32 очень
душно
1010.0 996.5
06 12.02 штиль 0
{1}
н/о н/о +25.1 +21.4 80 +32 +32 очень
душно
1009.9 996.3
07 12.02 штиль 0
{1}
н/о н/о +24.7 +21.1 80 +31 +31 очень
душно
1010.1 996.5
08 12.02 штиль 0
{2}
н/о н/о +24.7 +21.2 81 +31 +31 очень
душно
1010.5 996.9
09 12.02 С 1
{2}
н/о н/о +24.3 +21.0 82 +31 +31 очень
душно
1010.8 997.2
10 12.02 штиль 0
{2}
н/о н/о +24.8 +21.6 82 +32 +32 очень
душно
1011.7 998.1
11 12.02 штиль 0
{2}
н/о н/о +26.8 +23.0 80 +36 +36 очень
душно
1012.4 998.9
12 12.02 С 1
{2}
н/о н/о +27.4 +22.9 76 +36 +36 очень
душно
1012.7 999.2
13 12.02 СВ 1
{2}
н/о н/о +28.7 +23.8 75 +40 +40 очень
душно
1013.0 999.6
14 12.02 СВ 1
{2}
н/о н/о +30.4 +24.7 72 +43 +43 опасность
перегрева
1012.7 999.3
15 12.02 З 1
{2}
н/о н/о +29.9 +23.6 69 +41 +41 опасность
перегрева
1012.2 998.8
16 12.02 З 1
{2}
н/о н/о +29.9 +23.4 68 +40 +40 очень
душно
1011.2 997.8
17 12.02 СЗ 1
{2}
н/о н/о +31.1 +24.1 66 +43 +43 опасность
перегрева
1009.6 996.3
18 12.02 штиль 0
{4}
н/о н/о +26.9 +22.4 76 +35 +35 очень
душно
1009.1 995.6 12
19 12.02 СЗ 1
{2}
н/о н/о +29.1 +24.8 78 +42 +42 опасность
перегрева
1008.3 994.9
20 12.02 штиль 0
{2}
н/о н/о +29.7 +24.5 74 +42 +42 опасность
перегрева
1008.0 994.7
21 12.02 штиль 0
{3}
н/о н/о +27.2 +22.4 75 +36 +36 очень
душно
1008.2 994.8
22 12.02 штиль 0
{1}
н/о н/о +26.3 +22.2 78 +34 +34 очень
душно
1009.1 995.6
23 12.02 штиль 0
{2}
н/о н/о +26.0 +22.1 79 +34 +34 очень
душно
1010.3 996.8
00 13.02 штиль 0
{1}
н/о н/о +25.4 +21.8 80 +33 +33 очень
душно
1010.9 997.3
01 13.02 ЮВ 1
{2}
н/о н/о +25.6 +22.4 83 +34 +34 очень
душно
1012.0 998.4
02 13.02 штиль 0
{3}
н/о н/о +24.2 +20.8 81 +30 +30 очень
душно
1012.9 999.3 0.2
03 13.02 В 2
{4}
н/о н/о +23.5 +20.4 83 +29 +29 душно 1013.6 999.9 0.4
04 13.02 штиль 0
{4}
н/о н/о +22.3 +19.3 83 +28 +28 душно 1012.4 998.7 0.8
05 13.02 штиль 0
{1}
н/о н/о +22.1 +19.3 84 +28 +28 душно 1012.3 998.6 3
06 13.02 штиль 0
{1}
н/о н/о +22.2 +19.7 86 +28 +28 душно 1011.9 998.2 2
07 13.02 З 1
{2}
н/о н/о +22.4 +19.9 86 +29 +29 очень
душно
1012.3 998.6 0.2
08 13.02 штиль 0
{1}
н/о н/о +22.5 +20.2 87 +29 +29 очень
душно
1012.0 998.3 0.2
09 13.02 штиль 0
{1}
н/о н/о +22.5 +20.3 87 +29 +29 очень
душно
1012.3 998.6
10 13.02 штиль 0
{1}
н/о н/о +23.0 +20.8 87 +30 +30 очень
душно
1012.9 999.2
11 13.02 штиль 0
{1}
н/о н/о +24.9 +22.6 87 +33 +33 очень
душно
1013.0 999.4
12 13.02 штиль 0
{1}
н/о н/о +25.7 +23.0 85 +34 +34 очень
душно
1013.7 1000.1
13 13.02 СВ 1
{2}
н/о н/о +27.2 +24.1 83 +38 +38 очень
душно
1014.0 1000.5
14 13.02 В 1
{2}
н/о н/о +29.5 +25.7 80 +44 +44 опасность
перегрева
1013.4 1000.0
15 13.02 СВ 1
{3}
н/о н/о +30.2 +25.1 74 +44 +44 опасность
перегрева
1012.6 999.2
16 13.02 СВ 1
{3}
н/о н/о +31.1 +24.9 70 +45 +45 опасность
перегрева
1011.6 998.3
17 13.02 СВ 1
{3}
н/о н/о +31.6 +24.5 66 +44 +44 опасность
перегрева
1010.7 997.4
18 13.02 СВ 1
{3}
н/о н/о +31.7 +24.2 65 +44 +44 опасность
перегрева
1009.8 996.5
19 13.02 СВ 1
{3}
н/о н/о +31.7 +23.3 61 +42 +42 опасность
перегрева
1009.1 995.8
20 13.02 СВ 1
{3}
н/о н/о +31.0 +22.4 60 +40 +40 очень
душно
1009.1 995.8
21 13.02 С 1
{3}
н/о н/о +29.5 +21.3 61 +37 +37 очень
душно
1009.7 996.3
22 13.02 С 1
{2}
н/о н/о +28.3 +20.9 64 +35 +35 очень
душно
1009.9 996.5
23 13.02 С 1
{2}
н/о н/о +27.4 +20.7 67 +34 +34 очень
душно
1010.6 997.1
00 14.02 штиль 0
{1}
н/о н/о +26.4 +20.7 71 +33 +33 очень
душно
1011.5 998.0
01 14.02 штиль 0
{1}
н/о н/о +25.6 +20.7 74 +32 +32 очень
душно
1012.0 998.4
02 14.02 штиль 0
{1}
н/о н/о +25.0 +20.7 77 +31 +31 очень
душно
1012.5 998.9
03 14.02 штиль 0 н/о н/о +24.3 +20.5 79 +30 +30 очень
душно
1012.6 999.0
04 14.02 штиль 0
{1}
н/о н/о +24.3 +20.9 81 +30 +30 очень
душно
1012.5 998.9
05 14.02 штиль 0
{1}
н/о н/о +24.2 +21.0 82 +30 +30 очень
душно
1012.1 998.5
06 14.02 штиль 0
{1}
н/о н/о +24.3 +21.3 83 +31 +31 очень
душно
1012.1 998.5
07 14.02 штиль 0
{1}
н/о н/о +24.2 +21.4 84 +31 +31 очень
душно
1012.2 998.6
08 14.02 штиль 0
{1}
н/о н/о +24.3 +21.6 85 +31 +31 очень
душно
1012.1 998.5
09 14.02 штиль 0 н/о н/о +24.0 +21.4 85 +30 +30 очень
душно
1012.3 998.7
10 14.02 штиль 0
{1}
н/о н/о +25.0 +22.5 86 +33 +33 очень
душно
1013.0 999.4
11 14.02 СВ 1
{2}
н/о н/о +26.7 +23.7 84 +37 +37 очень
душно
1013.4 999.9
12 14.02 СВ 1
{3}
н/о н/о +28.7 +24.8 79 +41 +41 опасность
перегрева
1013.9 1000.4
13 14.02 СВ 1
{4}
н/о н/о +30.1 +25.2 75 +44 +44 опасность
перегрева
1014.0 1000.6
14 14.02 СВ 1
{3}
н/о н/о +29.7 +24.1 72 +41 +41 опасность
перегрева
1013.9 1000.5
15 14.02 В 1
{3}
н/о н/о +30.9 +25.8 74 +46 +46 опасность
перегрева
1013.1 999.8
16 14.02 СВ 1
{3}
н/о н/о +31.7 +24.6 66 +44 +44 опасность
перегрева
1011.8 998.5
17 14.02 С 1
{3}
н/о н/о +31.0 +23.9 66 +43 +43 опасность
перегрева
1010.7 997.4 0.6
18 14.02 штиль 0
{5}
н/о н/о +26.4 +20.9 72 +33 +33 очень
душно
1009.9 996.4 6
19 14.02 штиль 0
{1}
н/о н/о +29.4 +24.8 76 +42 +42 опасность
перегрева
1009.8 996.4
20 14.02 ЮВ 2
{5}
н/о н/о +24.4 +20.2 77 +30 +30 очень
душно
1011.4 997.8
21 14.02 ЮЗ 1
{4}
н/о н/о +23.7 +20.2 81 +29 +29 душно 1011.3 997.7
22 14.02 штиль 0
{2}
н/о н/о +23.7 +20.5 82 +29 +29 душно 1012.0 998.3 0.2
23 14.02 штиль 0
{1}
н/о н/о +23.7 +20.7 83 +30 +30 очень
душно
1013.0 999.3
00 15.02 штиль 0
{1}
н/о н/о +23.6 +20.8 84 +29 +29 душно 1014.4 1000.7
01 15.02 штиль 0
{1}
н/о н/о +23.5 +20.9 85 +29 +29 душно 1014.1 1000.4
02 15.02 штиль 0
{1}
н/о н/о +23.6 +21.0 85 +30 +30 очень
душно
1014.9 1001.2
03 15.02 штиль 0
{1}
н/о н/о +23.5 +21.1 86 +30 +30 очень
душно
1013.5 999.8
04 15.02 штиль 0 н/о н/о +23.5 +21.2 87 +30 +30 очень
душно
1012.9 999.2
05 15.02 штиль 0 н/о н/о +23.4 +21.2 87 +31 +31 очень
душно
1012.4 998.7
06 15.02 штиль 0 н/о н/о +23.6 +21.4 87 +30 +30 очень
душно
1011.6 997.9
07 15.02 штиль 0
{1}
н/о н/о +23.6 +21.4 87 +30 +30 очень
душно
1012.3 998.6
08 15.02 штиль 0
{1}
н/о н/о +23.5 +21.5 89 +30 +30 очень
душно
1012.9 999.2
09 15.02 штиль 0
{1}
н/о н/о +23.3 +21.2 88 +31 +31 очень
душно
1013.1 999.4
10 15.02 штиль 0
{1}
н/о н/о +23.6 +21.6 89 +30 +30 очень
душно
1013.7 1000.0
11 15.02 штиль 0
{1}
н/о н/о +24.9 +22.8 88 +33 +33 очень
душно
1014.2 1000.6
12 15.02 штиль 0
{2}
н/о н/о +26.8 +24.1 85 +37 +37 очень
душно
1014.6 1001.1
13 15.02 В 1
{2}
н/о н/о +28.1 +24.2 79 +39 +39 очень
душно
1014.6 1001.1
14 15.02 В 1
{3}
н/о н/о +30.5 +25.5 75 +45 +45 опасность
перегрева
1014.0 1000.6
15 15.02 СВ 1
{3}
н/о н/о +30.5 +24.4 70 +43 +43 опасность
перегрева
1013.4 1000.0
16 15.02 В 1
{3}
н/о н/о +32.7 +25.6 66 +47 +47 опасность
перегрева
1012.3 999.0
17 15.02 СВ 1
{3}
н/о н/о +33.0 +24.9 63 +47 +47 опасность
перегрева
1010.7 997.5
18 15.02 штиль 0
{2}
н/о н/о +32.8 +24.0 60 +45 +45 опасность
перегрева
1009.2 996.0
19 15.02 штиль 0
{2}
н/о н/о +32.4 +22.7 57 +42 +42 опасность
перегрева
1008.5 995.3
20 15.02 З 1
{1}
н/о н/о +32.9 +22.5 54 +42 +42 опасность
перегрева
1008.4 995.2
21 15.02 штиль 0
{1}
н/о н/о +31.4 +21.7 56 +40 +40 очень
душно
1008.8 995.5
22 15.02 СЗ 1
{3}
н/о н/о +27.2 +20.0 65 +33 +33 очень
душно
1009.9 996.4
23 15.02 штиль 0
{2}
н/о н/о +26.6 +21.0 71 +33 +33 очень
душно
1010.9 997.4
00 16.02 штиль 0
{2}
н/о н/о +25.9 +20.8 73 +32 +32 очень
душно
1011.9 998.3
01 16.02 С 1
{2}
н/о н/о +25.4 +21.0 77 +32 +32 очень
душно
1012.8 999.2
02 16.02 С 1
{2}
н/о н/о +25.4 +21.1 77 +32 +32 очень
душно
1012.7 999.1
03 16.02 штиль 0
{2}
н/о н/о +24.9 +20.7 78 +31 +31 очень
душно
1012.9 999.3
04 16.02 СЗ 1
{1}
н/о н/о +24.9 +20.9 78 +31 +31 очень
душно
1012.7 999.1
05 16.02 штиль 0
{1}
н/о н/о +24.4 +20.7 80 +30 +30 очень
душно
1012.2 998.6
06 16.02 В 1
{4}
н/о н/о +24.4 +20.8 80 +30 +30 очень
душно
1012.4 998.8
07 16.02 штиль 0
{3}
н/о н/о +23.0 +19.8 82 +30 +30 очень
душно
1011.3 997.6 0.6
08 16.02 штиль 0
{1}
н/о н/о +23.4 +20.6 84 +31 +31 очень
душно
1011.8 998.1
09 16.02 штиль 0
{1}
н/о н/о +23.5 +20.8 85 +29 +29 душно 1012.3 998.6 0.2
10 16.02 штиль 0
{1}
н/о н/о +23.7 +21.1 85 +30 +30 очень
душно
1013.1 999.4
11 16.02 штиль 0
{1}
н/о н/о +25.1 +22.5 86 +33 +33 очень
душно
1013.6 1000.0
12 16.02 ЮЗ 1
{2}
н/о н/о +25.5 +22.8 85 +34 +34 очень
душно
1014.3 1000.7
13 16.02 штиль 0
{2}
н/о н/о +26.9 +23.9 84 +37 +37 очень
душно
1014.1 1000.6
14 16.02 СЗ 1
{2}
н/о н/о +27.0 +23.7 82 +37 +37 очень
душно
1014.1 1000.6
15 16.02 штиль 0
{1}
н/о н/о +27.6 +23.9 80 +38 +38 очень
душно
1013.4 999.9
16 16.02 СЗ 1
{2}
н/о н/о +30.4 +25.6 76 +45 +45 опасность
перегрева
1011.7 998.4
17 16.02 С 1
{2}
н/о н/о +30.9 +24.7 70 +44 +44 опасность
перегрева
1010.2 996.9
18 16.02 СВ 1
{3}
н/о н/о +30.8 +23.9 67 +42 +42 опасность
перегрева
1008.7 995.4
19 16.02 штиль 0
{2}
н/о н/о +32.0 +24.6 65 +45 +45 опасность
перегрева
1007.9 994.7
20 16.02 Ю 1
{2}
н/о н/о +31.6 +23.6 63 +43 +43 опасность
перегрева
1007.8 994.6
21 16.02 З 1
{3}
н/о н/о +26.3 +19.5 66 +32 +32 очень
душно
1008.8 995.3 0.4
22 16.02 Ю 1
{2}
н/о н/о +24.2 +19.7 76 +29 +29 душно 1009.8 996.2 12
23 16.02 штиль 0
{3}
н/о н/о +24.1 +20.6 81 +30 +30 очень
душно
1010.6 997.0 3
00 17.02 СВ 1
{2}
н/о н/о +24.4 +21.3 83 +31 +31 очень
душно
1011.7 998.1
01 17.02 штиль 0
{2}
н/о н/о +24.4 +21.5 84 +31 +31 очень
душно
1012.3 998.7
02 17.02 штиль 0
{1}
н/о н/о +24.4 +21.7 85 +31 +31 очень
душно
1012.8 999.2
03 17.02 штиль 0
{1}
н/о н/о +24.5 +22.0 86 +32 +32 очень
душно
1012.7 999.1 2
04 17.02 штиль 0
{2}
н/о н/о +24.6 +22.2 87 +32 +32 очень
душно
1012.2 998.6 0.2
05 17.02 штиль 0
{1}
н/о н/о +24.3 +22.0 87 +31 +31 очень
душно
1011.2 997.6
06 17.02 В 1
{2}
н/о н/о +23.6 +21.3 87 +30 +30 очень
душно
1011.4 997.8 0.2
07 17.02 штиль 0
{2}
н/о н/о +23.6 +21.5 88 +30 +30 очень
душно
1011.2 997.6 0.8
08 17.02 штиль 0
{2}
н/о н/о +23.3 +21.3 89 +31 +31 очень
душно
1011.4 997.7 2
09 17.02 штиль 0
{1}
н/о н/о +23.4 +21.4 89 +32 +32 очень
душно
1011.6 997.9 0.6
10 17.02 штиль 0
{1}
н/о н/о +23.6 +21.6 89 +30 +30 очень
душно
1012.5 998.8 0.2
11 17.02 штиль 0
{1}
н/о н/о +24.0 +22.0 89 +31 +31 очень
душно
1013.5 999.8
13 17.02 штиль 0
{1}
н/о н/о +25.8 +23.4 87 +35 +35 очень
душно
1015.3 1001.7
14 17.02 Ю 1
{2}
н/о н/о +26.7 +23.9 85 +37 +37 очень
душно
1015.5 1001.9
15 17.02 Ю 1
{2}
н/о н/о +27.6 +24.2 82 +39 +39 очень
душно
1014.9 1001.4
16 17.02 штиль 0
{2}
н/о н/о +29.7 +25.4 78 +44 +44 опасность
перегрева
1013.6 1000.2
17 17.02 З 1
{2}
н/о н/о +30.4 +25.1 73 +44 +44 опасность
перегрева
1011.9 998.5
18 17.02 штиль 0
{2}
н/о н/о +29.8 +23.6 69 +40 +40 очень
душно
1010.2 996.8
19 17.02 СЗ 1
{2}
н/о н/о +31.0 +24.8 70 +44 +44 опасность
перегрева
1009.4 996.1
20 17.02 С 2
{3}
н/о н/о +29.4 +23.4 70 +40 +40 очень
душно
1010.5 997.1
21 17.02 В 1
{5}
н/о н/о +23.3 +19.5 79 +30 +30 очень
душно
1011.5 997.8 4
22 17.02 В 1
{3}
н/о н/о +23.2 +20.1 83 +30 +30 очень
душно
1012.1 998.4 0.8
23 17.02 В 1
{1}
н/о н/о +23.3 +20.5 84 +31 +31 очень
душно
1013.3 999.6 0.8
00 18.02 В 1
{3}
н/о н/о +23.2 +20.7 86 +31 +31 очень
душно
1013.8 1000.1 0.2
01 18.02 штиль 0
{2}
н/о н/о +23.0 +20.7 87 +30 +30 очень
душно
1014.6 1000.9 0.2
02 18.02 штиль 0
{1}
н/о н/о +22.6 +20.3 87 +29 +29 очень
душно
1014.0 1000.3
03 18.02 штиль 0
{1}
н/о н/о +22.6 +20.4 87 +29 +29 очень
душно
1013.6 999.9
04 18.02 Ю 1
{1}
н/о н/о +22.4 +20.2 87 +29 +29 очень
душно
1012.9 999.2
05 18.02 штиль 0
{1}
н/о н/о +22.3 +20.1 87 +28 +28 душно 1012.4 998.7
06 18.02 штиль 0
{1}
н/о н/о +22.1 +20.0 88 +28 +28 душно 1012.4 998.7
07 18.02 штиль 0
{1}
н/о н/о +22.0 +19.9 88 +28 +28 душно 1011.9 998.2
08 18.02 штиль 0 н/о н/о +21.9 +19.9 88 +28 +28 душно 1012.2 998.5
09 18.02 штиль 0
{1}
н/о н/о +22.0 +20.1 89 +28 +28 душно 1012.5 998.8
10 18.02 штиль 0
{1}
н/о н/о +22.4 +20.5 89 +29 +29 очень
душно
1013.3 999.6
11 18.02 штиль 0
{1}
н/о н/о +23.8 +21.8 89 +31 +31 очень
душно
1014.7 1001.0
12 18.02 Ю 1
{2}
н/о н/о +25.7 +23.4 87 +35 +35 очень
душно
1015.5 1001.9
13 18.02 ЮВ 1
{2}
н/о н/о +27.0 +24.1 84 +37 +37 очень
душно
1015.7 1002.1
14 18.02 В 1
{2}
н/о н/о +28.0 +24.4 81 +39 +39 очень
душно
1015.8 1002.3
15 18.02 В 1
{2}
н/о н/о +29.4 +25.1 78 +43 +43 опасность
перегрева
1015.0 1001.6
16 18.02 штиль 0
{2}
н/о н/о +29.7 +24.8 75 +42 +42 опасность
перегрева
1013.7 1000.3
17 18.02 штиль 0
{1}
н/о н/о +30.8 +25.0 71 +44 +44 опасность
перегрева
1012.2 998.9
18 18.02 Ю 1
{2}
н/о н/о +30.7 +24.5 70 +43 +43 опасность
перегрева
1010.7 997.4
19 18.02 Ю 1
{3}
н/о н/о +29.6 +23.4 69 +40 +40 очень
душно
1009.9 996.5
20 18.02 штиль 0
{2}
н/о н/о +28.3 +22.6 71 +37 +37 очень
душно
1010.2 996.8
21 18.02 штиль 0
{2}
н/о н/о +26.1 +21.7 77 +34 +34 очень
душно
1010.6 997.1 0.2
22 18.02 штиль 0
{1}
н/о н/о +25.4 +21.7 80 +33 +33 очень
душно
1011.8 998.2
23 18.02 штиль 0
{1}
н/о н/о +25.1 +21.7 81 +32 +32 очень
душно
1012.5 998.9
01 19.02 С 1
{3}
н/о н/о +24.7 +21.7 83 +32 +32 очень
душно
1015.8 1002.1

 

Местоположение метеостанции Императрис (Токантинс, Бразилия): широта -5.55 долгота -47.67 высота над уровнем моря 128 м.

В архиве по умолчанию представлена погода в Императрисе за последнюю неделю. Архивные данные за месяц целиком и за предыдущие месяцы, начиная с января 2011 года, Вы можете получить, выбрав интересующий диапазон дат из раскрывающегося списка и нажав кнопку "Ввод!".


*Определитесь, кто Вы:
робот инопланетянин человек

Внимание! Время в таблицах - всемирное. Для получения местного времени необходимо прибавить поправку, которая равна -3 ч.

Смотрите также архив погоды в соседних городах и на ближайших метеорологических станциях:

Погода в Арагуатинсе (Токантинс, Бразилия) (51 км)
Погода в Рондон-ду-Паре (Мараньян, Бразилия) (96 км)
Погода в Эстрейту (Мараньян, Бразилия) (125 км)
Погода в Марабе (Пара, Бразилия) (165 км)
Погода в Гражау (Мараньян, Бразилия) (169 км)
Погода в Буритикупу (Мараньян, Бразилия) (192 км)
Погода в Марабе (Пара, Бразилия) (194 км)
Погода в Каролине (Мараньян, Бразилия) (199 км)
Погода в Каролине (Мараньян, Бразилия) (199 км)
Погода в Арагуаине (Токантинс, Бразилия) (200 км)

Пояснения к столбцам:

Ветер - указаны скорость ветра в м/с - средняя за 10 мин, порывы в срок и между сроками (в фигурных скобках) и направление, откуда дует ветер: С - северный, СВ - северо-восточный, В - восточный, ЮВ - юго-восточный, Ю - южный, ЮЗ - юго-западный, З - западный, СЗ - северо-западный.
Видимость - горизонтальная дальность видимости в метрах или километрах. При видимости от 1 до 10 км при отсутствии осадков обычно наблюдается дымка, при ухудшении видимости до 1 км и менее - туман. В сухую погоду видимость может ухудшаться дымом, пылью или мглою.
Явления - указаны атмосферные явления, наблюдавшиеся в срок или в последний час перед сроком; фигурными скобками обозначены явления, наблюдавшиеся между сроками (за 1-3 часа до срока); квадратными скобками обозначены град или гололедные отложения с указанием их диаметра в мм.
Облачность - указаны через наклонную черту общая и нижняя облачность в баллах и высота нижней границы облаков в метрах; квадратными скобками обозначены формы облаков: Ci - перистые, Cs - перисто-слоистые, Cc - перисто-кучевые, Ac - высококучевые, As - высокослоистые, Sc - слоисто-кучевые, Ns - слоисто-дождевые, Cu - кучевые, Cb - кучево-дождевые. Подробнее классификацию облаков см. в Атласе облаков (PDF).
T - Температура воздуха - температура, измеренная на высоте 2 м над землей.
Td - Температура точки росы - температура, при понижении до которой содержащийся в воздухе водяной пар достигнет насыщения.
f - Относительная влажность воздуха - влажноcть воздуха, измеренная на высоте 2 м над землей.
Te - Эффективная температура - температура, которую ощущает одетый по сезону человек в тени. Характеристика душности погоды. При расчете учитывается влияние влажности воздуха и скорости ветра на теплоощущения человека.
Tes - Эффективная температура на солнце - температура, которую ощущает человек, с поправкой на солнечный нагрев. Характеристика знойности погоды. Зависит от высоты солнца над горизонтом, облачности и скорости ветра. Ночью, в пасмурную погоду, а также при ветре 12 м/с и более поправка равна нулю.
P - Атмосферное давление - приведенное к уровню моря атмосферное давление.
Po - Атмосферное давление - измеренное на уровне метеостанции атмосферное давление.
Tmin - Минимальная температура - минимум температуры воздуха на высоте 2 м над землей.
Tmax - Максимальная температура - максимум температуры воздуха на высоте 2 м над землей.
R - Количество осадков - Количество выпавших осадков за период времени, мм. При наведении курсора мыши на число - период времени, за который выпало указанное количество осадков.
R24 - Количество осадков - Количество выпавших осадков за 24 часа, мм.
S - Снежный покров - Высота снежного покрова, см. При наведении курсора мыши на число - состояние снежного покрова и степень покрытия местности в баллах.